| time (UTC) | temp F | wind direction | speed knots | gust knots | rain 1hr in | rain 24hr in | rain mn in | humidity % | barometer mb |
| 20260906154522 | 86 | 84 | 1.7 | 6.1 | 0.00 | 0.64 | 0.00 | 71 | 1015.2 |
| 20260906153024 | 85 | 58 | 0.9 | 6.1 | 0.00 | 0.64 | 0.00 | 71 | 1015.2 |
| 20260906151513 | 84 | 76 | 0.9 | 3.5 | 0.00 | 0.64 | 0.00 | 72 | 1015.2 |
| 20260906150009 | 0 | 0.0 | 0.0 | 0.00 | 0.64 | 0.00 | 1015.4 | ||
| 20260906144505 | 0 | 0.0 | 0.0 | 0.00 | 0.64 | 0.00 | 1015.5 | ||
| 20260906143101 | 0 | 0.0 | 0.0 | 0.00 | 0.64 | 0.00 | 1015.4 | ||
| 20260906141555 | 0 | 0.0 | 0.0 | 0.00 | 0.64 | 0.00 | 1015.3 | ||
| 20260906140053 | 0 | 0.0 | 0.0 | 0.00 | 0.64 | 0.00 | 1015.2 | ||
| 20260906134557 | 0 | 0.0 | 0.0 | 0.00 | 0.64 | 0.00 | 1015.1 | ||
| 20260906133106 | 0 | 0.0 | 0.0 | 0.00 | 0.64 | 0.00 | 1015.0 | ||
| 20260906131537 | 0 | 0.0 | 0.0 | 0.00 | 0.64 | 0.00 | 1014.9 | ||
| 20260906130036 | 0 | 0.0 | 0.0 | 0.00 | 0.64 | 0.00 | 1015.0 | ||
| 20260906124527 | 0 | 0.0 | 0.0 | 0.00 | 0.64 | 0.00 | 1015.5 | ||
| 20260906123030 | 0 | 0.0 | 0.0 | 0.00 | 0.64 | 0.00 | 1015.3 | ||
| 20260906121519 | 0 | 0.0 | 0.0 | 0.00 | 0.64 | 0.00 | 1015.1 | ||
| 20260906120014 | 0 | 0.0 | 0.0 | 0.00 | 0.64 | 0.00 | 1015.1 | ||
| 20260906114511 | 75 | 76 | 0.0 | 0.0 | 0.00 | 0.64 | 0.00 | 87 | 1015.0 |
| 20260906113009 | 75 | 75 | 0.0 | 0.0 | 0.00 | 0.64 | 0.00 | 88 | 1014.9 |
| 20260906111506 | 75 | 73 | 0.0 | 0.0 | 0.00 | 0.64 | 0.00 | 87 | 1014.8 |
| 20260906110007 | 76 | 76 | 0.0 | 5.2 | 0.00 | 0.64 | 0.00 | 88 | 1014.7 |
| 20260906104506 | 76 | 101 | 0.0 | 3.5 | 0.00 | 0.64 | 0.00 | 88 | 1014.6 |
| 20260906103002 | 76 | 67 | 0.0 | 5.2 | 0.00 | 0.64 | 0.00 | 88 | 1014.6 |
| 20260906101601 | 76 | 59 | 0.0 | 3.5 | 0.00 | 0.64 | 0.00 | 88 | 1014.4 |
| 20260906100100 | 77 | 78 | 0.0 | 4.3 | 0.00 | 0.64 | 0.00 | 88 | 1014.3 |
| 20260906100001 | 77 | 78 | 0.0 | 4.3 | 0.00 | 0.64 | 0.00 | 88 | 1014.3 |
| 20260906094558 | 77 | 67 | 0.0 | 4.3 | 0.00 | 0.64 | 0.00 | 88 | 1014.2 |
| 20260906093113 | 77 | 73 | 0.9 | 6.1 | 0.00 | 0.64 | 0.00 | 88 | 1014.0 |
| 20260906091556 | 77 | 67 | 0.0 | 3.5 | 0.00 | 0.64 | 0.00 | 88 | 1014.0 |
| 20260906090054 | 77 | 61 | 0.0 | 3.5 | 0.00 | 0.64 | 0.00 | 87 | 1013.8 |
| 20260906084553 | 77 | 46 | 0.0 | 6.1 | 0.00 | 0.64 | 0.00 | 87 | 1013.5 |
| 20260906083053 | 77 | 80 | 0.0 | 3.5 | 0.00 | 0.64 | 0.00 | 87 | 1013.5 |
| 20260906081552 | 77 | 84 | 0.0 | 1.7 | 0.00 | 0.64 | 0.00 | 88 | 1013.5 |
| 20260906080051 | 76 | 112 | 0.0 | 0.0 | 0.00 | 0.64 | 0.00 | 88 | 1013.4 |
| 20260906074552 | 76 | 113 | 0.0 | 0.0 | 0.00 | 0.64 | 0.00 | 88 | 1013.4 |
| 20260906073051 | 76 | 113 | 0.0 | 0.0 | 0.00 | 0.64 | 0.00 | 88 | 1013.4 |
| 20260906071549 | 77 | 114 | 0.0 | 0.0 | 0.00 | 0.64 | 0.00 | 87 | 1013.4 |
| 20260906070047 | 77 | 114 | 0.0 | 0.0 | 0.00 | 0.64 | 0.00 | 87 | 1013.5 |
| 20260906064546 | 77 | 113 | 0.0 | 0.0 | 0.00 | 0.64 | 0.00 | 87 | 1013.7 |
| 20260906063048 | 77 | 113 | 0.0 | 0.0 | 0.00 | 0.64 | 0.00 | 87 | 1013.7 |
| 20260906061545 | 77 | 113 | 0.0 | 0.0 | 0.00 | 0.64 | 0.00 | 87 | 1013.6 |
| 20260906060044 | 77 | 113 | 0.0 | 0.0 | 0.00 | 0.64 | 0.00 | 87 | 1013.6 |
| 20260906054554 | 77 | 113 | 0.0 | 0.0 | 0.00 | 0.64 | 0.00 | 87 | 1013.6 |
| 20260906053044 | 78 | 113 | 0.0 | 0.0 | 0.00 | 0.64 | 0.00 | 87 | 1013.6 |
| 20260906051541 | 78 | 113 | 0.0 | 0.0 | 0.00 | 0.64 | 0.00 | 87 | 1013.6 |
| 20260906050046 | 78 | 113 | 0.0 | 0.0 | 0.00 | 0.64 | 0.00 | 87 | 1013.6 |
| 20260906044538 | 78 | 113 | 0.0 | 0.0 | 0.00 | 0.64 | 0.64 | 87 | 1013.5 |
| 20260906043038 | 79 | 113 | 0.0 | 0.0 | 0.00 | 0.64 | 0.64 | 87 | 1013.5 |
| 20260906041539 | 79 | 113 | 0.0 | 0.0 | 0.00 | 0.64 | 0.64 | 87 | 1013.3 |
| 20260906040041 | 79 | 113 | 0.0 | 0.0 | 0.00 | 0.64 | 0.64 | 86 | 1013.1 |
| 20260906034543 | 79 | 113 | 0.0 | 0.0 | 0.00 | 0.64 | 0.64 | 86 | 1012.9 |
| 20260906033040 | 79 | 113 | 0.0 | 0.0 | 0.00 | 0.64 | 0.64 | 86 | 1012.9 |
| 20260906031536 | 79 | 111 | 0.0 | 0.0 | 0.00 | 0.64 | 0.64 | 86 | 1012.9 |
| 20260906030039 | 79 | 111 | 0.0 | 0.0 | 0.00 | 0.64 | 0.64 | 86 | 1012.8 |
| 20260906024538 | 79 | 111 | 0.0 | 0.0 | 0.00 | 0.64 | 0.64 | 86 | 1012.7 |
| 20260906023034 | 79 | 111 | 0.0 | 0.0 | 0.00 | 0.64 | 0.64 | 86 | 1012.4 |
| 20260906021533 | 80 | 109 | 0.0 | 0.0 | 0.00 | 0.64 | 0.64 | 85 | 1012.2 |
| 20260906020040 | 80 | 109 | 0.0 | 0.0 | 0.00 | 0.64 | 0.64 | 85 | 1012.1 |
| 20260906014544 | 80 | 109 | 0.0 | 0.0 | 0.00 | 0.64 | 0.64 | 84 | 1011.9 |
| 20260906013035 | 81 | 109 | 0.0 | 0.0 | 0.00 | 0.64 | 0.64 | 84 | 1011.7 |
| 20260906011532 | 81 | 109 | 0.0 | 0.0 | 0.00 | 0.64 | 0.64 | 83 | 1011.6 |
| 20260906010031 | 81 | 109 | 0.0 | 0.0 | 0.00 | 0.64 | 0.64 | 82 | 1011.5 |
| 20260906004531 | 82 | 109 | 0.0 | 0.0 | 0.00 | 0.64 | 0.64 | 81 | 1011.4 |
| 20260906003031 | 83 | 109 | 0.0 | 0.0 | 0.01 | 0.64 | 0.64 | 80 | 1011.5 |
| 20260906001530 | 85 | 119 | 0.0 | 0.0 | 0.01 | 0.64 | 0.64 | 78 | 1011.3 |
| 20260906000030 | 85 | 118 | 0.0 | 0.0 | 0.01 | 0.64 | 0.64 | 73 | 1011.3 |
| 20260905234529 | 85 | 118 | 0.0 | 1.7 | 0.01 | 0.64 | 0.64 | 73 | 1010.9 |
| 20260905233036 | 87 | 192 | 0.0 | 0.9 | 0.00 | 0.63 | 0.63 | 68 | 1010.8 |
| 20260905231533 | 87 | 192 | 0.0 | 0.0 | 0.00 | 0.63 | 0.63 | 67 | 1010.8 |
| 20260905230027 | 85 | 192 | 0.0 | 1.7 | 0.01 | 0.63 | 0.63 | 71 | 1011.0 |
| 20260905224527 | 82 | 185 | 0.0 | 7.0 | 0.41 | 0.63 | 0.63 | 74 | 1011.3 |
| 20260905223026 | 79 | 204 | 0.0 | 5.2 | 0.63 | 0.63 | 0.63 | 80 | 1011.5 |
| 20260905221532 | 79 | 198 | 0.0 | 3.5 | 0.63 | 0.63 | 0.63 | 81 | 1011.8 |
| 20260905220027 | 83 | 192 | 0.0 | 4.3 | 0.62 | 0.62 | 0.62 | 75 | 1011.8 |
| 20260905214528 | 87 | 78 | 0.0 | 13.9 | 0.22 | 0.22 | 0.22 | 63 | 1011.1 |
| 20260905213026 | 100 | 173 | 0.0 | 3.5 | 0.00 | 0.00 | 0.00 | 43 | 1010.9 |
| 20260905211530 | 97 | 175 | 0.0 | 1.7 | 0.00 | 0.00 | 0.00 | 46 | 1010.8 |
| 20260905210020 | 97 | 172 | 0.0 | 1.7 | 0.00 | 0.00 | 0.00 | 46 | 1011.2 |
| 20260905204520 | 97 | 252 | 1.7 | 7.8 | 0.00 | 0.00 | 0.00 | 43 | 1011.3 |
| 20260905203018 | 100 | 275 | 0.0 | 4.3 | 0.00 | 0.00 | 0.00 | 43 | 1011.5 |
| 20260905201518 | 102 | 272 | 0.0 | 4.3 | 0.00 | 0.00 | 0.00 | 39 | 1011.4 |
| 20260905200017 | 100 | 284 | 1.7 | 7.8 | 0.00 | 0.00 | 0.00 | 40 | 1011.6 |
| 20260905194516 | 100 | 319 | 0.0 | 8.7 | 0.00 | 0.00 | 0.00 | 42 | 1011.8 |
| 20260905193015 | 102 | 279 | 1.7 | 8.7 | 0.00 | 0.00 | 0.00 | 38 | 1011.9 |
| 20260905191517 | 102 | 319 | 3.5 | 7.8 | 0.00 | 0.00 | 0.00 | 38 | 1012.0 |
| 20260905190012 | 102 | 308 | 1.7 | 8.7 | 0.00 | 0.00 | 0.00 | 38 | 1012.0 |
| 20260905184517 | 101 | 292 | 0.9 | 6.1 | 0.00 | 0.00 | 0.00 | 40 | 1012.1 |
| 20260905183009 | 101 | 288 | 0.0 | 1.7 | 0.00 | 0.00 | 0.00 | 40 | 1012.2 |
| 20260905181508 | 100 | 296 | 1.7 | 7.0 | 0.00 | 0.00 | 0.00 | 39 | 1012.4 |
| 20260905180005 | 100 | 355 | 0.9 | 6.1 | 0.00 | 0.00 | 0.00 | 40 | 1012.6 |
| 20260905174504 | 100 | 346 | 0.0 | 4.3 | 0.00 | 0.00 | 0.00 | 41 | 1012.8 |
| 20260905173002 | 100 | 11 | 0.0 | 7.0 | 0.00 | 0.00 | 0.00 | 42 | 1012.9 |
| 20260905171605 | 100 | 348 | 0.0 | 4.3 | 0.00 | 0.00 | 0.00 | 41 | 1013.0 |
| 20260905170056 | 99 | 355 | 1.7 | 4.3 | 0.00 | 0.00 | 0.00 | 42 | 1013.1 |
| 20260905164553 | 99 | 345 | 0.0 | 3.5 | 0.00 | 0.00 | 0.00 | 45 | 1013.3 |
| 20260905163051 | 98 | 252 | 0.0 | 3.5 | 0.00 | 0.00 | 0.00 | 47 | 1013.1 |
| 20260905161544 | 97 | 247 | 0.0 | 1.7 | 0.00 | 0.00 | 0.00 | 50 | 1013.9 |
| 20260905160040 | 95 | 252 | 0.0 | 2.6 | 0.00 | 0.00 | 0.00 | 53 | 1014.0 |